Location: Houhaj�rvi
(61.2833°N, 23.0000°E)
Time: 06:42:27
(UTC+00:00)

NOSS 3-1 (C) - Pass Details

Date: 27 February 2020
Orbit: 759 x 1449 km, 63.4° (Epoch: 26 March)

Event Time Altitude Azimuth Distance (km) Brightness Sun altitude
Rises 20:09:57 0° 278° (W) 3,592 7.2 -30.2°
Reaches altitude 10° 20:12:19 10° 281° (W) 2,732 6.5 -30.4°
Maximum altitude 20:18:49 76° 7° (N) 1,142 3.8 -30.9°
Enters shadow 20:19:37 69° 59° (ENE) 1,199 3.8 -31.0°
